Header for Extended Forecast Station List Page

Search by: ID | Name | Date | Parm | Value | Avg | % Avg
Sort by: ID | Name | Date | Parm | Value | Avg | % Avg

Enter search or view all records.

Click on id for station plot
#IDNameDateParmValueAvg% Avg
0LYDM8KOOTENAI-LIBBY DAM01-13-2020INFLOW (KAF)1164126892
1LEOI1KOOTENAI-AT LEONIA01-13-2020DISCHARGE (KAF)1534182784
2BFEI1KOOTENAI-AT BONNERS FERRY01-13-2020STAGE (FT)MMM
3FCFM8NF FLATHEAD-NEAR COLUMBIA FALLS01-13-2020DISCHARGE (KAF)39440398
4WGCM8MF FLATHEAD-NEAR WEST GLACIER01-13-2020DISCHARGE (KAF)29537778
5HHWM8SF FLATHEAD-HUNGRY HORSE DAM01-13-2020INFLOW (KAF)57557999
6CFMM8FLATHEAD-AT COLUMBIA FALLS01-13-2020DISCHARGE (KAF)1439164787
7DLGM8CLARK FORK-AT DEER LODGE01-13-2020DISCHARGE (KAF)606691
8DRMM8CLARK FORK-NR DRUMMOND01-13-2020DISCHARGE (KAF)170MM
9RCCM8ROCK CREEK-NEAR CLINTON01-13-2020DISCHARGE (KAF)667292
10BONM8BLACKFOOT-NEAR BONNER01-13-2020DISCHARGE (KAF)26026498
11ABOM8CLARK FORK-ABOVE MISSOULA01-13-2020DISCHARGE (KAF)51554495
12BITM8BITTERROOT-NEAR MISSOULA01-13-2020DISCHARGE (KAF)33537290
13BELM8CLARK FORK-BELOW MISSOULA01-13-2020DISCHARGE (KAF)85192792
14STRM8ST. REGIS-NEAR ST. REGIS01-13-2020DISCHARGE (KAF)8713166
15SRGM8CLARK FORK-AT ST REGIS01-13-2020DISCHARGE (KAF)1081131282
16KERM8FLATHEAD-KERR DAM01-13-2020INFLOW (KAF)1698214279
17NOXM8CLARK FORK-NOXON RAPIDS DAM01-13-2020INFLOW (KAF)3206461469
18CABI1CLARK FORK-CABINET GORGE DAM01-13-2020INFLOW (KAF)3578484474
19PRTI1PRIEST-NEAR PRIEST RIVER01-13-2020DISCHARGE (KAF)458376122
20ALFW1PEND OREILLE-ALBENI FALLS DAM01-13-2020INFLOW (KAF)4648587879
21HOPI1PEND OREILLE-PEND OREILLE LAKE NR HOPE01-13-2020LAKE ELEVATION (FT)MMM
22COEI1COEUR D ALENE-COEUR D ALENE LAKE01-13-2020INFLOW (KAF)2091211199
23SPOW1SPOKANE-AT SPOKANE01-13-2020DISCHARGE (KAF)1970MM
24LLKW1SPOKANE-AT LONGLAKE01-13-2020INFLOW (KAF)2320255291
25SATI1ST MARIES-NEAR SANTA01-13-2020DISCHARGE (KAF)10712685
26SJMI1ST JOE-AT ST MARIES01-13-2020STAGE (FT)MMM
27CIBW1COLUMBIA-AT INTL BOUNDARY01-13-2020DISCHARGE (KAF)16842MM
28LAUW1KETTLE-AT LAURIER01-13-2020DISCHARGE (KAF)718569126
29GCDW1COLUMBIA-GRAND COULEE DAM01-13-2020INFLOW (KAF)2003919572102
30CHJW1COLUMBIA-CHIEF JOSEPH DAM01-13-2020INFLOW (KAF)224962402594
31TONW1OKANOGAN-NEAR TONASKET01-13-2020DISCHARGE (KAF)38845685
32PATW1METHOW-NEAR PATEROS01-13-2020DISCHARGE (KAF)20322092
33WELW1COLUMBIA-WELLS DAM01-13-2020INFLOW (KAF)230762467294
34CHDW1CHELAN-LAKE CHELAN DAM01-13-2020INFLOW (KAF)23629979
35RRHW1COLUMBIA-ROCKY REACH DAM01-13-2020INFLOW (KAF)235152510794
36ARDW1ENTIAT-NEAR ARDENVOIR01-13-2020DISCHARGE (KAF)404786
37PESW1WENATCHEE-AT PESHASTIN01-13-2020DISCHARGE (KAF)51753297
38WANW1COLUMBIA-WANAPUM DAM01-13-2020INFLOW (KAF)2403723088104
39PRWW1COLUMBIA-PRIEST RAPIDS DAM01-13-2020INFLOW (KAF)2403623335103
40KEDW1YAKIMA-KEECHELUS LAKE01-13-2020INFLOW (KAF)9870141
41KADW1KACHESS-KACHESS DAM01-13-2020INFLOW (KAF)8968131
42EASW1YAKIMA-AT EASTON01-13-2020DISCHARGE (KAF)10099101
43CLUW1CLE ELUM-CLE ELUM LAKE01-13-2020INFLOW (KAF)209171122
44TNAW1TEANAWAY-BELOW FORKS01-13-2020DISCHARGE (KAF)122106115
45UMTW1YAKIMA-AT UMTANUM01-13-2020DISCHARGE (KAF)476469101
46BUDW1BUMPING-BUMPING LAKE DAM01-13-2020INFLOW (KAF)5450109
47CLFW1NACHES-NEAR CLIFFDEL01-13-2020DISCHARGE (KAF)15519878
48RILW1TIETON-RIMROCK LAKE NEAR RIMROCK01-13-2020INFLOW (KAF)769878
49NACW1NACHES-NEAR NACHES01-13-2020DISCHARGE (KAF)20522691
50PARW1YAKIMA-NEAR PARKER01-13-2020DISCHARGE (KAF)52061385
51KIOW1YAKIMA-AT KIONA01-13-2020DISCHARGE (KAF)74894979
52IPDI1HENRYS FORK-ISLAND PARK DAM01-13-2020INFLOW (KAF)133131102
53CHEI1FALL RIVER-NEAR CHESTER01-13-2020DISCHARGE (KAF)151149102
54ANTI1HENRYS FORK-AT ST. ANTHONY01-13-2020DISCHARGE (KAF)441423104
55TEAI1TETON-NEAR ST. ANTHONY01-13-2020DISCHARGE (KAF)129128101
56REXI1HENRYS FORK-AT REXBURG01-13-2020DISCHARGE (KAF)502496101
57JLKW4SNAKE-JACKSON LAKE AT DAM01-13-2020INFLOW (KAF)15817093
58JKSW4SNAKE-NEAR JACKSON01-13-2020DISCHARGE (KAF)28540570
59ALPW4SNAKE-NEAR ALPINE01-13-2020DISCHARGE (KAF)41553977
60PLDI1SF SNAKE-PALISADES DAM01-13-2020INFLOW (KAF)72190180
61HEII1SNAKE-NEAR HEISE01-13-2020DISCHARGE (KAF)80094285
62RIDI1WILLOW CREEK-RIRIE DAM01-13-2020INFLOW (KAF)4730157
63SIFI1SNAKE-AB EAGLE ROCK NR IDAHO FALLS01-13-2020DISCHARGE (KAF)1006113189
64SHYI1SNAKE-NEAR SHELLEY01-13-2020DISCHARGE (KAF)951115782
65SNAI1SNAKE-AT BLACKFOOT01-13-2020DISCHARGE (KAF)813102979
66BFTI1SNAKE-NEAR BLACKFOOT01-13-2020DISCHARGE (KAF)803107375
67PIHI1PORTNEUF-AT POCATELLO01-13-2020DISCHARGE (KAF)719376
68AFRI1SNAKE-AMERICAN FALLS RESERVOIR01-13-2020INFLOW (KAF)1407179179
69MILI1SNAKE-AT MILNER01-13-2020DISCHARGE (KAF)107771
70HOTI1BRUNEAU-NEAR HOT SPRINGS01-13-2020DISCHARGE (KAF)839290
71SWAI1SNAKE-BELOW SWAN FALLS01-13-2020DISCHARGE (KAF)1771274065
72HWRI1BIG LOST-AT HOWELL RANCH NEAR CHILLY01-13-2020DISCHARGE (KAF)242982
73MACI1BIG LOST-MACKAY RESERVOIR NEAR MACKAY01-13-2020INFLOW (KAF)3617206
74HALI1BIG WOOD-AT HAILEY01-13-2020DISCHARGE (KAF)556881
75MAGI1BIG WOOD-MAGIC DAM01-13-2020INFLOW (KAF)8412468
76LWRI1LITTLE WOOD-LITTLE WOOD DAM01-13-2020INFLOW (KAF)323984
77OWYO3OWYHEE-OWYHEE DAM01-13-2020INFLOW (KAF)26331683
78ARAI1SF BOISE-ANDERSON RANCH DAM01-13-2020INFLOW (KAF)20122589
79LUCI1BOISE-LUCKY PEAK DAM01-13-2020INFLOW (KAF)588MM
80BIGI1BOISE-AT GLENWOOD BRIDGE01-13-2020DISCHARGE (KAF)275179154
81PARI1BOISE-NEAR PARMA01-13-2020DISCHARGE (KAF)370315118
82WRMO3MALHEUR-WARM SPRINGS DAM01-13-2020INFLOW (KAF)547572
83BERO3MALHEUR-AGENCY VALLEY DAM01-13-2020INFLOW (KAF)304764
84BULO3BULLY CREEK-BULLY CREEK DAM01-13-2020INFLOW (KAF)4939
85CSDI1NF PAYETTE-CASCADE DAM01-13-2020INFLOW (KAF)20721198
86DEDI1DEADWOOD-NEAR LOWMAN01-13-2020INFLOW (KAF)363990
87EMMI1PAYETTE-NEAR EMMETT01-13-2020DISCHARGE (KAF)54370677
88WSRI1WEISER-NEAR WEISER01-13-2020DISCHARGE (KAF)32233795
89WEII1SNAKE-AT WEISER01-13-2020DISCHARGE (KAF)3285478869
90BRNI1SNAKE-BROWNLEE DAM01-13-2020INFLOW (KAF)3631513271
91WHBI1SALMON-AT WHITEBIRD01-13-2020DISCHARGE (KAF)1301177373
92TRYO3GRANDE RONDE-TROY01-13-2020DISCHARGE (KAF)76787288
93ANAW1SNAKE-NEAR ANATONE01-13-2020DISCHARGE (KAF)5936870068
94ORFI1CLEARWATER-AT OROFINO01-13-2020DISCHARGE (KAF)21112080102
95DWRI1NF CLEARWATER-DWORSHAK DAM01-13-2020INFLOW (KAF)16261551105
96SPDI1CLEARWATER-AT SPALDING01-13-2020DISCHARGE (KAF)2782375174
97LGDW1SNAKE-LOWER GRANITE DAM01-13-2020INFLOW (KAF)87181256969
98LGSW1SNAKE-LITTLE GOOSE DAM01-13-2020INFLOW (KAF)87181260969
99LMNW1SNAKE-LOWER MONUMENTAL DAM01-13-2020INFLOW (KAF)90351289270
100IHDW1SNAKE-ICE HARBOR DAM01-13-2020INFLOW (KAF)90351273371
101TCHW1WALLA WALLA-NEAR TOUCHET01-13-2020DISCHARGE (KAF)18722184
102MCDW1COLUMBIA-MCNARY DAM01-13-2020INFLOW (KAF)339223827889
103GIBO3UMATILLA-NEAR GIBBON01-13-2020DISCHARGE (KAF)8878114
104PDTO3UMATILLA-AT PENDLETON01-13-2020DISCHARGE (KAF)18219295
105MYKO3MCKAY CREEK-NEAR PILOT ROCK01-13-2020DISCHARGE (KAF)364286
106UMAO3UMATILLA-NEAR UMATILLA01-13-2020DISCHARGE (KAF)14718082
107MONO3NF JOHN DAY-AT MONUMENT01-13-2020DISCHARGE (KAF)32048166
108SERO3JOHN DAY-AT SERVICE CK01-13-2020DISCHARGE (KAF)48472067
109JDAO3COLUMBIA-JOHN DAY DAM01-13-2020INFLOW (KAF)357684054088
110MODO3DESCHUTES-AT MOODY NR BIGGS01-13-2020DISCHARGE (KAF)1430160789
111TDAO3COLUMBIA-THE DALLES DAM01-13-2020INFLOW (KAF)362684321084
112PITW1KLICKITAT-NEAR PITT01-13-2020DISCHARGE (KAF)36348275
113HODO3HOOD-NEAR TUCKER BRIDGE01-13-2020DISCHARGE (KAF)310292106
114UNDW1WHITE SALMON-NEAR UNDERWOOD01-13-2020DISCHARGE (KAF)30034886
115BONO3COLUMBIA-BONNEVILLE DAM01-13-2020INFLOW (KAF)372244611781